Location: Blue Pit
(43.1414°N, 93.2208°W)
Time: 02:24:38
(UTC+00:00)

CENTAUR R/B - Pass Details

Date: 18 November 2025
Orbit: 633 x 1547 km, 63.4° (Epoch: 08 December)

Event Time Altitude Azimuth Distance (km) Brightness Sun altitude
Exits shadow 12:00:16 10° 316° (NW) 3,452 4.8 -12.7°
Reaches altitude 10° 12:00:23 10° 316° (NW) 3,416 4.8 -12.7°
Maximum altitude 12:08:40 53° 243° (WSW) 1,777 3.6 -11.2°
Drops below altitude 10° 12:17:45 10° 170° (S) 3,719 5.9 -9.7°
Sets 12:20:53 0° 166° (SSE) 4,685 6.5 -9.1°
